�N����,����,�~����,�C��,���x,�C��,����,���ϕ���,�ő�u�ԕ���,�ő厞����,���˗�,�I�_���x,�n�����x,�ő啗���N��,DTYPE
"17/01/05","00:10",0.0,2.9,95.0,1014.0,295.4,1.3,2.2,328.0,0.00,2.2,6.7,"00:00:08",1
"17/01/05","00:20",0.0,2.9,94.9,1013.8,300.2,1.2,2.2,306.2,0.00,2.2,6.9,"00:17:22",1
"17/01/05","00:30",0.0,3.1,94.8,1013.8,313.7,1.3,2.0,322.2,0.00,2.4,6.7,"00:20:16",1
"17/01/05","00:40",0.0,3.0,94.7,1013.8,288.9,0.8,1.7,325.8,0.00,2.3,6.7,"00:30:02",1
"17/01/05","00:50",0.0,3.1,94.6,1013.8,295.3,1.7,2.6,282.4,0.00,2.4,6.8,"00:48:16",1
"17/01/05","01:00",0.0,3.1,94.1,1014.0,310.7,1.2,2.5,319.4,0.00,2.3,6.7,"00:53:20",1
"17/01/05","01:10",0.0,3.0,93.5,1014.0,304.1,1.2,2.1,328.0,0.00,2.1,6.6,"01:06:48",1
"17/01/05","01:20",0.0,2.7,93.3,1014.0,300.1,1.8,2.9,311.0,0.00,1.8,6.5,"01:17:40",1
"17/01/05","01:30",0.0,2.5,94.0,1013.8,302.0,2.0,2.5,314.1,0.00,1.7,6.8,"01:20:36",1
"17/01/05","01:40",0.0,2.7,94.5,1014.0,307.9,1.6,2.7,320.3,0.00,1.9,6.5,"01:31:52",1
"17/01/05","01:50",0.0,2.9,94.8,1014.0,305.2,1.1,1.6,311.8,0.00,2.2,6.4,"01:42:16",1
"17/01/05","02:00",0.0,3.1,94.8,1014.0,289.7,1.3,1.8,313.4,0.00,2.4,6.8,"01:56:00",1
"17/01/05","02:10",0.0,3.3,94.8,1014.0,308.5,1.6,2.6,322.0,0.00,2.6,6.6,"02:05:36",1
"17/01/05","02:20",0.0,3.6,94.5,1014.5,295.0,1.2,2.6,303.1,0.00,2.8,6.5,"02:10:40",1
"17/01/05","02:30",0.0,3.8,94.0,1014.2,301.9,1.1,1.8,329.1,0.00,3.0,6.5,"02:25:20",1
"17/01/05","02:40",0.0,3.9,93.5,1014.2,289.5,1.5,2.1,318.9,0.00,3.0,6.7,"02:35:04",1
"17/01/05","02:50",0.0,4.0,93.3,1014.5,299.2,1.5,2.5,319.0,0.00,3.1,6.6,"02:42:08",1
"17/01/05","03:00",0.0,4.0,93.1,1014.2,293.0,1.1,1.4,289.3,0.00,3.0,6.6,"02:53:52",1
"17/01/05","03:10",0.0,4.1,92.7,1014.5,286.1,1.3,1.8,296.2,0.00,3.1,6.6,"03:08:00",1
"17/01/05","03:20",0.0,4.2,92.5,1014.2,284.3,1.6,2.1,294.7,0.00,3.1,6.7,"03:12:08",1
"17/01/05","03:30",0.0,4.4,91.6,1014.2,295.2,1.3,2.6,311.4,0.00,3.2,6.6,"03:22:16",1
"17/01/05","03:40",0.0,4.4,91.3,1014.0,310.6,1.5,2.0,309.6,0.00,3.1,6.7,"03:38:08",1
"17/01/05","03:50",0.0,4.4,91.3,1014.5,291.0,1.5,2.2,313.1,0.00,3.1,6.7,"03:44:00",1
"17/01/05","04:00",0.0,4.4,91.6,1014.2,300.9,1.6,2.4,318.0,0.00,3.2,6.6,"03:54:00",1
"17/01/05","04:10",0.0,4.5,91.0,1014.7,292.7,1.3,2.7,318.9,0.00,3.2,6.7,"04:04:16",1
"17/01/05","04:20",0.0,4.7,89.5,1014.7,297.4,1.7,3.5,324.8,0.00,3.2,6.7,"04:18:48",1
"17/01/05","04:30",0.0,5.3,85.5,1015.2,310.9,3.0,5.6,328.8,0.00,3.1,6.7,"04:27:12",1
"17/01/05","04:40",0.0,6.0,79.1,1015.2,319.3,3.6,6.4,304.0,0.00,2.7,6.6,"04:30:02",1
"17/01/05","04:50",0.0,6.3,74.5,1015.4,323.7,3.5,5.8,328.1,0.00,2.1,6.9,"04:41:04",1
"17/01/05","05:00",0.0,6.3,73.0,1015.4,325.6,3.6,7.7,326.5,0.00,1.9,6.6,"04:51:44",1
"17/01/05","05:10",0.0,6.2,72.4,1014.9,327.9,2.5,4.2,301.5,0.00,1.7,6.8,"05:00:08",1
"17/01/05","05:20",0.0,6.1,70.8,1015.4,316.7,3.5,6.4,329.4,0.00,1.2,6.7,"05:15:20",1
"17/01/05","05:30",0.0,6.0,69.5,1015.4,304.2,2.7,4.1,292.4,0.00,0.9,6.8,"05:23:12",1
"17/01/05","05:40",0.0,5.9,71.4,1015.2,296.1,1.8,3.4,332.3,0.00,1.2,6.8,"05:32:08",1
"17/01/05","05:50",0.0,5.6,73.3,1015.4,293.7,1.7,2.6,317.0,0.00,1.2,6.4,"05:42:00",1
"17/01/05","06:00",0.0,5.5,73.5,1015.6,282.6,1.7,3.1,259.2,0.00,1.2,6.5,"05:56:48",1
"17/01/05","06:10",0.0,5.8,71.2,1015.9,303.1,2.5,4.2,330.2,0.00,1.0,6.4,"06:02:56",1
"17/01/05","06:20",0.0,5.8,71.5,1016.4,299.4,1.5,2.7,309.6,0.00,1.1,6.7,"06:12:24",1
"17/01/05","06:30",0.0,5.9,69.5,1016.4,313.5,3.1,5.1,334.5,0.00,0.8,6.8,"06:22:00",1
"17/01/05","06:40",0.0,5.8,68.6,1016.1,294.8,2.6,4.1,329.2,0.00,0.5,6.9,"06:31:28",1
"17/01/05","06:50",0.0,5.8,68.4,1016.1,283.3,2.2,3.5,309.7,0.00,0.5,6.9,"06:41:20",1
"17/01/05","07:00",0.0,5.9,66.2,1016.1,309.4,3.6,5.5,303.8,0.00,0.1,6.7,"06:53:28",1
"17/01/05","07:10",0.0,5.8,66.0,1016.1,288.1,2.1,3.4,312.5,0.00,0.0,6.6,"07:00:16",1
"17/01/05","07:20",0.0,5.6,67.2,1016.4,296.7,1.5,2.4,324.0,0.00,0.0,6.8,"07:11:28",1
"17/01/05","07:30",0.0,5.4,68.0,1016.6,293.6,1.7,2.5,306.8,0.00,0.0,6.6,"07:25:04",1
"17/01/05","07:40",0.0,5.7,66.2,1016.4,283.8,2.7,4.3,238.6,0.00,-0.1,6.8,"07:34:08",1
"17/01/05","07:50",0.0,5.9,65.2,1016.8,303.4,2.5,4.1,318.2,0.00,-0.1,6.7,"07:41:44",1
"17/01/05","08:00",0.0,6.0,65.4,1016.8,296.7,2.2,3.7,329.3,0.00,0.1,6.6,"07:51:36",1
"17/01/05","08:10",0.0,6.2,65.3,1017.1,289.5,2.8,4.1,307.8,0.00,0.2,6.7,"08:05:36",1
"17/01/05","08:20",0.0,6.2,63.6,1016.6,309.5,3.2,5.6,321.8,0.00,-0.1,6.8,"08:14:32",1
"17/01/05","08:30",0.0,6.2,65.8,1017.1,313.9,2.7,3.6,314.7,0.00,0.3,6.7,"08:20:08",1
"17/01/05","08:40",0.0,6.2,66.8,1016.6,304.9,2.2,4.0,322.3,0.02,0.5,6.5,"08:32:16",1
"17/01/05","08:50",0.0,6.3,66.1,1016.8,289.8,2.0,3.2,312.4,0.02,0.5,6.7,"08:48:00",1
"17/01/05","09:00",0.0,6.5,65.8,1017.1,296.8,1.8,3.2,322.7,0.01,0.6,6.7,"08:58:48",1
"17/01/05","09:10",0.0,6.8,66.4,1017.5,302.8,2.0,3.4,325.9,0.08,1.0,6.9,"09:08:40",1
"17/01/05","09:20",0.0,7.0,63.4,1017.8,294.3,2.5,6.3,300.9,0.03,0.6,7.0,"09:19:36",1
"17/01/05","09:30",0.0,7.0,65.9,1017.8,321.4,2.2,4.8,330.9,0.05,1.1,7.0,"09:20:16",1
"17/01/05","09:40",0.0,7.1,62.1,1018.0,346.9,2.2,4.1,315.6,0.05,0.4,6.8,"09:30:02",1
"17/01/05","09:50",0.0,7.1,61.8,1018.2,340.0,3.5,6.6,343.3,0.04,0.3,6.8,"09:44:00",1
"17/01/05","10:00",0.0,7.5,60.7,1018.0,327.9,3.9,7.0,335.1,0.12,0.4,7.0,"09:57:36",1
"17/01/05","10:10",0.0,8.2,58.5,1018.2,328.0,2.3,5.0,339.3,0.23,0.6,7.2,"10:00:08",1
"17/01/05","10:20",0.0,7.9,57.5,1018.7,328.9,3.2,7.8,343.1,0.10,0.1,7.3,"10:18:40",1
"17/01/05","10:30",0.0,8.2,58.2,1018.2,316.4,4.1,8.1,321.3,0.20,0.5,7.3,"10:22:00",1
"17/01/05","10:40",0.0,8.0,57.9,1018.5,309.4,3.9,6.8,342.6,0.15,0.3,7.2,"10:33:36",1
"17/01/05","10:50",0.0,7.6,60.2,1018.0,323.1,4.9,9.5,347.7,0.12,0.4,7.2,"10:42:56",1
"17/01/05","11:00",0.0,8.7,57.7,1017.8,319.7,2.6,6.5,334.0,0.29,0.9,7.6,"10:52:00",1
"17/01/05","11:10",0.0,8.5,57.8,1017.8,339.6,2.1,4.4,336.4,0.15,0.7,7.5,"11:05:28",1
"17/01/05","11:20",0.0,8.2,55.5,1017.8,321.4,2.6,5.2,306.7,0.10,-0.1,7.6,"11:13:12",1
"17/01/05","11:30",0.0,8.4,53.3,1017.5,344.4,3.2,8.5,339.7,0.27,-0.5,7.7,"11:28:16",1
"17/01/05","11:40",0.0,8.1,53.9,1017.3,356.6,3.9,10.1,311.5,0.11,-0.6,7.9,"11:30:16",1
"17/01/05","11:50",0.0,8.3,51.5,1017.5,349.2,3.9,8.7,56.8,0.27,-1.1,7.7,"11:48:52",1
"17/01/05","12:00",0.0,8.3,51.3,1017.3,343.2,3.4,8.2,341.2,0.21,-1.1,7.8,"11:54:08",1
"17/01/05","12:10",0.0,9.4,48.1,1016.8,321.0,4.0,9.5,346.1,0.43,-1.0,8.0,"12:07:44",1
"17/01/05","12:20",0.0,8.8,48.4,1017.1,316.1,5.0,9.6,315.6,0.29,-1.4,8.1,"12:17:52",1
"17/01/05","12:30",0.0,8.6,50.0,1017.1,325.3,4.5,7.1,331.3,0.19,-1.2,8.0,"12:22:08",1
"17/01/05","12:40",0.0,8.5,49.6,1017.3,323.5,3.5,7.5,302.7,0.12,-1.4,8.2,"12:32:40",1
"17/01/05","12:50",0.0,8.3,51.8,1016.8,338.2,2.8,5.4,16.4,0.11,-1.0,8.2,"12:43:12",1
"17/01/05","13:00",0.0,8.6,50.1,1016.6,313.2,3.1,5.5,327.1,0.23,-1.2,8.2,"12:58:32",1
"17/01/05","13:10",0.0,8.2,51.7,1017.1,313.1,4.2,7.7,359.2,0.07,-1.1,8.1,"13:07:44",1
"17/01/05","13:20",0.0,7.7,54.8,1016.8,326.5,4.4,8.8,326.0,0.05,-0.8,8.3,"13:12:24",1
"17/01/05","13:30",0.0,8.0,55.5,1016.8,325.4,3.2,7.5,351.0,0.15,-0.3,8.2,"13:21:04",1
"17/01/05","13:40",0.0,7.7,55.4,1016.8,331.4,4.0,8.2,340.2,0.12,-0.6,8.3,"13:39:56",1
"17/01/05","13:50",0.0,7.6,55.0,1017.1,335.8,4.9,10.8,322.9,0.11,-0.8,8.3,"13:46:50",1
"17/01/05","14:00",0.0,8.0,54.3,1016.8,329.3,4.1,7.9,313.5,0.15,-0.6,8.3,"13:57:04",1
"17/01/05","14:10",0.0,8.3,49.7,1017.1,318.6,2.3,6.0,341.0,0.16,-1.5,8.2,"14:05:20",1
"17/01/05","14:20",0.0,7.8,50.8,1017.1,356.5,3.2,6.6,76.4,0.09,-1.7,8.3,"14:13:38",1
"17/01/05","14:30",0.0,7.9,47.2,1017.1,333.0,4.1,6.5,353.7,0.10,-2.6,8.3,"14:27:12",1
"17/01/05","14:40",0.0,8.1,47.0,1017.1,353.1,3.2,6.7,342.4,0.18,-2.5,8.2,"14:32:56",1
"17/01/05","14:50",0.0,8.0,47.7,1017.1,354.9,2.0,7.3,332.8,0.09,-2.4,8.2,"14:40:56",1
"17/01/05","15:00",0.0,7.9,48.3,1017.3,344.2,3.7,7.0,344.4,0.13,-2.3,8.2,"14:53:36",1
"17/01/05","15:10",0.0,7.9,49.7,1017.3,346.6,3.6,7.1,325.5,0.13,-1.9,8.3,"15:02:00",1
"17/01/05","15:20",0.0,7.9,47.9,1017.3,353.1,3.0,6.8,323.0,0.13,-2.4,8.2,"15:19:04",1
"17/01/05","15:30",0.0,7.7,48.7,1017.8,346.3,3.2,7.8,330.5,0.04,-2.4,8.1,"15:28:48",1
"17/01/05","15:40",0.0,7.2,51.3,1017.3,332.4,4.4,9.3,327.0,0.02,-2.1,8.1,"15:32:48",1
"17/01/05","15:50",0.0,7.4,51.6,1017.8,344.7,3.0,5.8,304.1,0.06,-1.9,8.2,"15:40:32",1
"17/01/05","16:00",0.0,7.5,49.9,1018.0,334.3,3.1,6.5,342.3,0.06,-2.2,8.2,"15:58:32",1
"17/01/05","16:10",0.0,7.4,49.6,1018.0,323.8,3.9,8.6,339.6,0.05,-2.4,8.1,"16:07:28",1
"17/01/05","16:20",0.0,7.2,51.1,1018.2,321.0,3.6,6.8,313.0,0.03,-2.2,8.2,"16:19:04",1
"17/01/05","16:30",0.0,7.0,51.5,1018.2,323.3,4.1,8.3,337.9,0.02,-2.3,8.0,"16:25:28",1
"17/01/05","16:40",0.0,6.9,52.7,1018.0,321.1,4.2,8.8,315.6,0.00,-2.0,8.2,"16:32:40",1
"17/01/05","16:50",0.0,6.7,53.4,1018.0,341.1,3.0,5.7,42.1,0.00,-2.1,7.9,"16:40:08",1
"17/01/05","17:00",0.0,6.3,54.0,1018.0,322.5,3.2,5.9,308.4,0.00,-2.3,7.7,"16:58:48",1
"17/01/05","17:10",0.0,6.3,54.1,1017.8,323.8,3.4,5.4,314.8,0.00,-2.3,7.7,"17:00:32",1
"17/01/05","17:20",0.0,6.3,53.8,1018.0,322.0,3.7,6.5,339.3,0.00,-2.3,7.8,"17:16:08",1
"17/01/05","17:30",0.0,6.1,54.9,1018.0,310.9,2.5,5.4,334.1,0.00,-2.2,7.8,"17:20:56",1
"17/01/05","17:40",0.0,5.9,56.0,1018.0,314.3,3.6,6.5,308.6,0.00,-2.2,7.6,"17:36:32",1
"17/01/05","17:50",0.0,6.1,55.5,1018.5,312.6,3.6,5.5,321.6,0.00,-2.1,7.6,"17:45:44",1
"17/01/05","18:00",0.0,6.0,56.9,1018.5,310.0,2.5,3.9,314.2,0.00,-1.9,7.4,"17:55:44",1
"17/01/05","18:10",0.0,5.8,57.6,1018.5,307.4,2.0,3.1,318.4,0.00,-1.9,7.7,"18:03:36",1
"17/01/05","18:20",0.0,5.8,58.5,1018.7,303.4,2.7,4.1,327.2,0.00,-1.7,7.6,"18:14:32",1
"17/01/05","18:30",0.0,5.7,59.3,1018.2,306.1,3.4,7.4,344.6,0.00,-1.6,7.3,"18:25:02",1
"17/01/05","18:40",0.0,5.6,60.2,1018.5,304.7,2.6,4.8,322.1,0.00,-1.5,7.4,"18:39:52",1
"17/01/05","18:50",0.0,5.7,61.5,1019.0,314.9,3.0,5.6,330.4,0.00,-1.1,7.4,"18:46:00",1
"17/01/05","19:00",0.0,5.5,62.5,1019.2,306.1,2.1,3.4,326.8,0.00,-1.0,7.3,"18:57:28",1
"17/01/05","19:10",0.0,5.5,61.9,1018.7,311.1,2.3,4.1,314.4,0.00,-1.2,7.3,"19:04:56",1
"17/01/05","19:20",0.0,5.6,62.9,1019.0,333.4,2.1,4.4,326.9,0.00,-0.9,7.4,"19:19:12",1
"17/01/05","19:30",0.0,5.3,64.3,1019.0,308.6,2.2,3.6,336.0,0.00,-0.8,7.2,"19:21:36",1
"17/01/05","19:40",0.0,5.2,65.5,1019.0,310.9,2.5,3.2,316.8,0.00,-0.7,7.4,"19:30:16",1
"17/01/05","19:50",0.0,5.4,66.1,1019.0,316.5,3.4,5.5,335.4,0.00,-0.4,7.3,"19:44:24",1
"17/01/05","20:00",0.0,5.6,65.1,1019.2,318.8,4.0,7.4,315.7,0.00,-0.4,7.2,"19:58:16",1
"17/01/05","20:10",0.0,5.5,65.6,1019.2,323.2,3.0,7.8,317.8,0.00,-0.4,7.2,"20:01:44",1
"17/01/05","20:20",0.0,5.3,66.6,1019.0,330.9,1.8,3.4,343.5,0.00,-0.4,7.3,"20:17:04",1
"17/01/05","20:30",0.0,5.2,67.2,1018.7,315.3,2.3,4.3,339.2,0.00,-0.3,7.2,"20:23:28",1
"17/01/05","20:40",0.0,5.1,68.2,1019.0,314.0,1.6,2.8,323.3,0.00,-0.2,7.2,"20:30:48",1
"17/01/05","20:50",0.0,4.8,70.9,1018.7,316.3,2.1,2.8,321.9,0.00,0.0,7.0,"20:43:28",1
"17/01/05","21:00",0.0,4.7,73.2,1019.0,319.2,2.0,3.3,319.7,0.00,0.4,7.0,"20:59:36",1
"17/01/05","21:10",0.0,5.1,69.0,1019.2,323.5,3.2,6.4,337.1,0.00,-0.1,7.1,"21:01:36",1
"17/01/05","21:20",0.0,5.4,67.9,1019.2,325.2,3.5,7.4,343.0,0.00,0.0,7.0,"21:15:20",1
"17/01/05","21:30",0.0,5.4,67.4,1019.0,317.9,3.7,5.9,314.3,0.00,-0.1,7.1,"21:23:12",1
"17/01/05","21:40",0.0,5.4,67.4,1019.0,318.9,3.7,5.6,299.5,0.00,-0.1,7.0,"21:34:32",1
"17/01/05","21:50",0.0,5.3,67.7,1019.2,296.7,2.2,3.4,331.0,0.00,-0.1,7.0,"21:41:36",1
"17/01/05","22:00",0.0,5.2,69.1,1019.0,303.0,2.2,3.7,315.6,0.00,0.0,7.0,"21:54:08",1
"17/01/05","22:10",0.0,5.3,69.0,1019.0,303.7,3.0,4.5,319.9,0.00,0.1,6.9,"22:03:44",1
"17/01/05","22:20",0.0,5.1,69.1,1019.4,302.3,2.1,3.7,315.9,0.00,-0.1,7.1,"22:10:24",1
"17/01/05","22:30",0.0,5.0,69.8,1019.2,308.9,2.6,3.7,316.7,0.00,0.0,6.7,"22:26:48",1
"17/01/05","22:40",0.0,4.7,71.7,1019.0,321.5,2.0,3.2,321.5,0.00,0.1,6.9,"22:30:56",1
"17/01/05","22:50",0.0,4.2,74.4,1018.7,316.7,1.7,2.7,324.8,0.00,0.1,7.0,"22:42:40",1
"17/01/05","23:00",0.0,3.8,76.3,1018.7,327.2,1.6,2.7,330.7,0.00,0.1,6.7,"22:51:36",1
"17/01/05","23:10",0.0,3.7,77.3,1019.0,321.8,1.3,3.4,307.8,0.00,0.1,6.6,"23:01:04",1
"17/01/05","23:20",0.0,3.3,78.6,1019.0,306.0,1.7,2.6,311.8,0.00,0.0,6.7,"23:11:04",1
"17/01/05","23:30",0.0,3.1,79.9,1018.7,300.8,1.1,1.6,267.1,0.00,0.0,6.6,"23:25:36",1
"17/01/05","23:40",0.0,3.0,81.5,1018.2,319.4,1.6,3.4,322.8,0.00,0.2,6.8,"23:35:28",1
"17/01/05","23:50",0.0,3.2,81.7,1018.2,306.4,1.6,2.9,329.1,0.00,0.4,6.6,"23:44:08",1
"17/01/05","24:00",0.0,3.4,80.2,1017.8,305.6,1.5,2.4,327.6,0.00,0.4,6.5,"23:51:28",1
